Regional Weather Roundup
Issued by NWS

Home | Current Version | Previous Version | Graphics & Text | Print | Product List | Glossary On
Versions: 1 2 3 4 5 6 7 8 9 10 11 12 13 14 15 16 17 18 19 20 21 22 23 24 25 26 27 28 29 30 31 32 33 34 35 36 37 38 39 40 41 42 43 44 45 46 47 48 49 50
000
ASUS43 KTOP 222359
RWRKS

WEATHER ROUNDUP FOR KANSAS
NATIONAL WEATHER SERVICE GOODLAND KS
700 PM CDT FRI JUL 22 2016

NOTE:  "FAIR" INDICATES FEW OR NO CLOUDS BELOW 12,000 FEET WITH NO
SIGNIFICANT WEATHER AND/OR OBSTRUCTIONS TO VISIBILITY.

KSZ001>006-013>018-027>032-041>047-230100-
NORTHWEST KANSAS

CITY           SKY/WX    TMP DP  RH WIND       PRES   REMARKS
GOODLAND       SUNNY     98  53  22 S15       29.97S HX  96
6HR MIN TEMP:  92; 6HR MAX TEMP: 104;

HAYS           MOSUNNY   99  61  28 S9        29.90S HX  99
HILL CITY      CLOUDY    96  64  34 SW10      29.92R HX  98
6HR MIN TEMP:  95; 6HR MAX TEMP: 101;

RUSSELL        SUNNY    102  58  23 S14       29.89F HX 102
6HR MIN TEMP:  99; 6HR MAX TEMP: 106;

$$

KSZ061>065-074>080-084>089-230100-
SOUTHWEST KANSAS

CITY           SKY/WX    TMP DP  RH WIND       PRES   REMARKS
DODGE CITY     SUNNY     98  58  26 S14G22    29.95F HX  97
6HR MIN TEMP:  94; 6HR MAX TEMP: 101;

ELKHART          N/A     92  63  38 S9          N/A
GARDEN CITY    SUNNY     96  64  34 SE13      29.94F HX  98
6HR MIN TEMP:  92; 6HR MAX TEMP: 100;

GREAT BEND     SUNNY    102  57  22 S10       29.90S HX 101
LIBERAL        SUNNY    100  55  22 S18       29.97F HX  99
$$

KSZ066>073-081>083-090>101-230100-
SOUTHEAST KANSAS

CITY           SKY/WX    TMP DP  RH WIND       PRES   REMARKS
CHANUTE        SUNNY     94  74  52 S7        29.95F HX 104
6HR MIN TEMP:  94; 6HR MAX TEMP:  96;

COFFEYVILLE    SUNNY     98  68  37 S9        29.94F HX 103
6HR MIN TEMP:  97; 6HR MAX TEMP: 101;

HUTCHINSON     SUNNY    102  62  26 S12       29.91F HX 104
6HR MIN TEMP:  99; 6HR MAX TEMP: 106;

NEWTON         SUNNY     97  69  40 SE15      29.94S HX 103
PARSONS        SUNNY     95  73  48 VRB5      29.96F HX 104
6HR MIN TEMP:  94; 6HR MAX TEMP:  98;

WICHITA INTL   MOSUNNY   99  69  37 SE16      29.90F HX 105
6HR MIN TEMP:  99; 6HR MAX TEMP: 105;

WICHITA JABRA  SUNNY     97  70  41 SE13      29.92F HX 103
6HR MIN TEMP:  96; 6HR MAX TEMP: 101;

WINFIELD       SUNNY     96  69  41 S12G21    29.94F HX 102
6HR MIN TEMP:  96; 6HR MAX TEMP: 102;

$$

KSZ007>012-019>026-033>040-048>060-102>105-230100-
NORTHEAST KANSAS

CITY           SKY/WX    TMP DP  RH WIND       PRES   REMARKS
CONCORDIA      CLOUDY    83  66  56 SE6       29.87F
6HR MIN TEMP:  77; 6HR MAX TEMP:  94; 6HR PCP:  0.07;

EMPORIA        SUNNY     95  71  45 S9        29.94F HX 102
6HR MIN TEMP:  95; 6HR MAX TEMP:  99;

LAWRENCE       CLOUDY    92  74  55 S6        29.93S HX 101
6HR MIN TEMP:  92; 6HR MAX TEMP:  97;

MANHATTAN      CLOUDY    91  76  61 SE3       29.90F HX 103
6HR MIN TEMP:  91; 6HR MAX TEMP: 104;

OLATHE IND     SUNNY     95  74  50 S8        29.96S HX 105
6HR MIN TEMP:  91; 6HR MAX TEMP:  95;

OLATHE EXE     SUNNY     91  78  65 SE9       29.97S HX 106
6HR MIN TEMP:  87; 6HR MAX TEMP:  92;

SALINA         MOSUNNY   98  70  40 E8        29.89F HX 105
6HR MIN TEMP:  98; 6HR MAX TEMP: 109;

TOPEKA BILLARD SUNNY     96  72  45 S7        29.91F HX 104
6HR MIN TEMP:  96; 6HR MAX TEMP: 100;

TOPEKA FORBES  SUNNY     96  75  50 S7        29.93F HX 108
6HR MIN TEMP:  95; 6HR MAX TEMP: 101;

$$




USA.gov is the U.S. government's official web portal to all federal, state and local government web resources and services.